AUA33T LOWI-EDDH

Flight info

Callsign AUA33T
Flight time 1h 11m
Altitude 38000
Route KOGOL M726 KEMES DCT GASKA DCT ELNAT P605 NOLGO NOLGO6A
Aircraft A320/M-SDE3FGHIRWY/LB1

Departure

Time 2026-05-06 18:49
Airport Innsbruck Airport (LOWI)

Arrival

Time 2026-05-06 20:01
Airport Hamburg Helmut Schmidt Airport (EDDH)
Time Latitude Longitude Altitude Speed Heading
2026-05-06 18:07 47.25804 11.34871 1894 ft 0 kts 171°
2026-05-06 18:08 47.25810 11.34930 1896 ft 0 kts 171°
2026-05-06 18:31 47.25823 11.34927 1896 ft 4 kts 171°
2026-05-06 18:31 47.25846 11.34921 1904 ft 4 kts 165°
2026-05-06 18:32 47.25864 11.34905 1905 ft 4 kts 98°
2026-05-06 18:32 47.25860 11.34869 1904 ft 4 kts 71°
2026-05-06 18:32 47.25856 11.34846 1897 ft 0 kts 81°
2026-05-06 18:34 47.25857 11.34862 1902 ft 6 kts 81°
2026-05-06 18:34 47.25865 11.34935 1905 ft 8 kts 81°
2026-05-06 18:34 47.25871 11.34990 1907 ft 5 kts 81°
2026-05-06 18:35 47.25878 11.35052 1904 ft 7 kts 81°
2026-05-06 18:35 47.25886 11.35125 1903 ft 8 kts 81°
2026-05-06 18:35 47.25891 11.35173 1907 ft 5 kts 81°
2026-05-06 18:35 47.25897 11.35228 1901 ft 6 kts 81°
2026-05-06 18:36 47.25898 11.35242 1904 ft 0 kts 81°
2026-05-06 18:39 47.25901 11.35267 1907 ft 8 kts 80°
2026-05-06 18:39 47.25918 11.35289 1901 ft 2 kts 14°
2026-05-06 18:40 47.25922 11.35289 1903 ft 0 kts
2026-05-06 18:44 47.25931 11.35289 1907 ft 2 kts 360°
2026-05-06 18:45 47.25950 11.35284 1907 ft 3 kts 351°
2026-05-06 18:45 47.25967 11.35280 1896 ft 0 kts 350°
2026-05-06 18:46 47.25976 11.35277 1901 ft 8 kts 350°
2026-05-06 18:47 47.26076 11.35254 1900 ft 16 kts 353°
2026-05-06 18:47 47.26125 11.35361 1897 ft 15 kts 81°
2026-05-06 18:47 47.26124 11.35516 1899 ft 16 kts 105°
2026-05-06 18:47 47.26110 11.35677 1902 ft 16 kts 81°
2026-05-06 18:48 47.26157 11.35723 1900 ft 7 kts 315°
2026-05-06 18:48 47.26158 11.35671 1906 ft 0 kts 262°
2026-05-06 18:48 47.26157 11.35659 1904 ft 7 kts 262°
2026-05-06 18:49 47.26106 11.35201 1901 ft 86 kts 261°
2026-05-06 18:49 47.25974 11.33987 1910 ft 150 kts 261°
2026-05-06 18:49 47.25824 11.32321 2310 ft 164 kts 260°
2026-05-06 18:49 47.25841 11.30633 3039 ft 164 kts 274°
2026-05-06 18:50 47.25957 11.28977 3759 ft 164 kts 276°
2026-05-06 18:50 47.26090 11.27264 4323 ft 172 kts 274°
2026-05-06 18:50 47.25950 11.25516 4708 ft 176 kts 243°
2026-05-06 18:50 47.25171 11.24170 5193 ft 174 kts 210°
2026-05-06 18:51 47.24036 11.23674 5664 ft 171 kts 179°
2026-05-06 18:51 47.22905 11.24134 6134 ft 171 kts 148°
2026-05-06 18:51 47.22107 11.25386 6608 ft 173 kts 120°
2026-05-06 18:51 47.21868 11.27118 7054 ft 179 kts 86°
2026-05-06 18:52 47.22290 11.28861 7474 ft 185 kts 67°
2026-05-06 18:52 47.22888 11.30538 7925 ft 186 kts 65°
2026-05-06 18:52 47.23498 11.32240 8315 ft 191 kts 66°
2026-05-06 18:52 47.24122 11.33978 8736 ft 193 kts 65°
2026-05-06 18:53 47.24751 11.35734 9145 ft 194 kts 65°
2026-05-06 18:53 47.25291 11.37569 9526 ft 198 kts 74°
2026-05-06 18:53 47.25747 11.39580 9675 ft 215 kts 75°
2026-05-06 18:53 47.26217 11.41782 9807 ft 237 kts 76°
2026-05-06 18:54 47.26732 11.44217 9923 ft 261 kts 75°
2026-05-06 18:54 47.27299 11.46892 10184 ft 285 kts 75°
2026-05-06 18:54 47.27909 11.49757 10457 ft 309 kts 75°
2026-05-06 18:54 47.28589 11.52929 10708 ft 332 kts 75°
2026-05-06 18:55 47.29300 11.56222 11041 ft 350 kts 74°
2026-05-06 18:55 47.30050 11.59690 11673 ft 358 kts 74°
2026-05-06 18:55 47.30814 11.63214 12347 ft 364 kts 73°
2026-05-06 18:55 47.31894 11.66624 13009 ft 372 kts 60°
2026-05-06 18:56 47.33237 11.69913 13645 ft 379 kts 60°
2026-05-06 18:56 47.34675 11.73227 14210 ft 386 kts 53°
2026-05-06 18:56 47.36627 11.75964 14817 ft 392 kts 33°
2026-05-06 18:56 47.39085 11.77661 15429 ft 392 kts 13°
2026-05-06 18:57 47.41772 11.78127 15752 ft 387 kts 353°
2026-05-06 18:57 47.44365 11.77294 15828 ft 378 kts 333°
2026-05-06 18:57 47.46623 11.75395 15831 ft 372 kts 321°
2026-05-06 18:57 47.48767 11.73253 15844 ft 372 kts 322°
2026-05-06 18:58 47.50933 11.71109 16318 ft 376 kts 322°
2026-05-06 18:58 47.53125 11.68953 16969 ft 379 kts 322°
2026-05-06 18:58 47.55336 11.66785 17555 ft 383 kts 322°
2026-05-06 18:58 47.57562 11.64602 18193 ft 383 kts 322°
2026-05-06 18:59 47.59792 11.62412 18815 ft 385 kts 322°
2026-05-06 18:59 47.62020 11.60213 19444 ft 385 kts 322°
2026-05-06 18:59 47.64246 11.58012 20101 ft 385 kts 322°
2026-05-06 18:59 47.66472 11.55807 20756 ft 385 kts 322°
2026-05-06 19:00 47.68699 11.53602 21421 ft 383 kts 322°
2026-05-06 19:00 47.70908 11.51415 22104 ft 382 kts 322°
2026-05-06 19:00 47.73112 11.49229 22813 ft 380 kts 321°
2026-05-06 19:00 47.74568 11.47786 23294 ft 379 kts 321°
2026-05-06 19:01 47.77490 11.44880 24121 ft 376 kts 321°
2026-05-06 19:01 47.79694 11.42679 24337 ft 388 kts 322°
2026-05-06 19:01 47.81978 11.40415 24467 ft 402 kts 324°
2026-05-06 19:01 47.84509 11.38462 24592 ft 419 kts 334°
2026-05-06 19:02 47.87332 11.37087 24776 ft 433 kts 344°
2026-05-06 19:02 47.90330 11.36415 25132 ft 439 kts 354°
2026-05-06 19:02 47.93384 11.36171 25503 ft 442 kts 354°
2026-05-06 19:02 47.96473 11.35913 25867 ft 445 kts 354°
2026-05-06 19:03 47.99580 11.35642 26226 ft 448 kts 353°
2026-05-06 19:03 48.02697 11.35361 26576 ft 451 kts 353°
2026-05-06 19:03 48.05835 11.35078 26921 ft 453 kts 353°
2026-05-06 19:03 48.08983 11.34721 27267 ft 455 kts 351°
2026-05-06 19:04 48.11075 11.34392 27497 ft 456 kts 350°
2026-05-06 19:04 48.14228 11.33788 27860 ft 457 kts 349°
2026-05-06 19:04 48.17387 11.33106 28190 ft 459 kts 348°
2026-05-06 19:04 48.20556 11.32402 28504 ft 462 kts 348°
2026-05-06 19:05 48.23747 11.31709 28813 ft 464 kts 348°
2026-05-06 19:05 48.26958 11.31046 29114 ft 467 kts 349°
2026-05-06 19:05 48.30192 11.30456 29412 ft 470 kts 350°
2026-05-06 19:05 48.33459 11.29938 29696 ft 473 kts 351°
2026-05-06 19:06 48.36741 11.29461 29964 ft 475 kts 351°
2026-05-06 19:06 48.40041 11.28991 30197 ft 477 kts 351°
2026-05-06 19:06 48.43355 11.28510 30420 ft 479 kts 351°
2026-05-06 19:06 48.46679 11.28011 30674 ft 481 kts 351°
2026-05-06 19:07 48.50023 11.27488 30824 ft 485 kts 350°
2026-05-06 19:07 48.53384 11.26945 31017 ft 487 kts 351°
2026-05-06 19:07 48.56748 11.26391 31283 ft 487 kts 351°
2026-05-06 19:07 48.60111 11.25839 31572 ft 486 kts 351°
2026-05-06 19:08 48.63480 11.25295 31865 ft 486 kts 351°
2026-05-06 19:08 48.66837 11.24762 32148 ft 485 kts 351°
2026-05-06 19:08 48.70193 11.24233 32441 ft 485 kts 351°
2026-05-06 19:08 48.73557 11.23702 32735 ft 485 kts 351°
2026-05-06 19:09 48.76908 11.23171 33027 ft 485 kts 351°
2026-05-06 19:09 48.80269 11.22632 33277 ft 486 kts 351°
2026-05-06 19:09 48.83631 11.22093 33560 ft 486 kts 352°
2026-05-06 19:09 48.87023 11.21945 33850 ft 488 kts 357°
2026-05-06 19:10 48.90414 11.21971 34096 ft 488 kts 357°
2026-05-06 19:10 48.93810 11.21998 34351 ft 488 kts 357°
2026-05-06 19:10 48.97154 11.22017 34594 ft 487 kts 357°
2026-05-06 19:10 49.00553 11.22034 34828 ft 487 kts 357°
2026-05-06 19:11 49.03943 11.22050 35060 ft 487 kts 357°
2026-05-06 19:11 49.07331 11.22064 35286 ft 486 kts 357°
2026-05-06 19:11 49.10714 11.22081 35516 ft 486 kts 357°
2026-05-06 19:11 49.14097 11.22105 35742 ft 485 kts 357°
2026-05-06 19:12 49.17477 11.22129 35959 ft 485 kts 357°
2026-05-06 19:12 49.20849 11.22152 36189 ft 484 kts 357°
2026-05-06 19:12 49.24212 11.22173 36418 ft 483 kts 357°
2026-05-06 19:12 49.27565 11.22196 36631 ft 482 kts 357°
2026-05-06 19:13 49.30919 11.22222 36838 ft 481 kts 357°
2026-05-06 19:13 49.34265 11.22250 37032 ft 480 kts 357°
2026-05-06 19:13 49.37606 11.22282 37227 ft 480 kts 357°
2026-05-06 19:13 49.40943 11.22316 37417 ft 479 kts 357°
2026-05-06 19:14 49.44274 11.22347 37646 ft 479 kts 358°
2026-05-06 19:14 49.47605 11.22373 37793 ft 478 kts 358°
2026-05-06 19:14 49.50917 11.22101 37814 ft 474 kts 348°
2026-05-06 19:15 49.57145 11.19215 37809 ft 464 kts 329°
2026-05-06 19:15 49.62466 11.13797 37811 ft 458 kts 319°
2026-05-06 19:16 49.67560 11.07880 37812 ft 458 kts 319°
2026-05-06 19:16 49.72650 11.01965 37810 ft 459 kts 319°
2026-05-06 19:17 49.77756 10.96013 37808 ft 459 kts 319°
2026-05-06 19:17 49.82846 10.90055 37815 ft 458 kts 319°
2026-05-06 19:18 49.87908 10.84112 37806 ft 456 kts 319°
2026-05-06 19:18 49.92962 10.78169 37810 ft 455 kts 319°
2026-05-06 19:19 49.98010 10.72226 37805 ft 455 kts 319°
2026-05-06 19:19 50.03016 10.66311 37805 ft 455 kts 319°
2026-05-06 19:20 50.08050 10.60340 37800 ft 455 kts 319°
2026-05-06 19:20 50.13085 10.54350 37799 ft 456 kts 319°
2026-05-06 19:21 50.18127 10.48349 37811 ft 456 kts 319°
2026-05-06 19:21 50.23550 10.43121 37808 ft 463 kts 331°
2026-05-06 19:22 50.29366 10.38769 37799 ft 464 kts 331°
2026-05-06 19:22 50.35195 10.34422 37799 ft 464 kts 331°
2026-05-06 19:23 50.41008 10.30057 37799 ft 464 kts 331°
2026-05-06 19:23 50.46709 10.25748 37799 ft 465 kts 330°
2026-05-06 19:24 50.52522 10.21353 37798 ft 465 kts 331°
2026-05-06 19:24 50.58364 10.16933 37803 ft 465 kts 331°
2026-05-06 19:25 50.64193 10.12499 37802 ft 465 kts 331°
2026-05-06 19:25 50.70023 10.08065 37808 ft 465 kts 331°
2026-05-06 19:26 50.75850 10.03619 37805 ft 465 kts 330°
2026-05-06 19:26 50.81670 9.99141 37805 ft 465 kts 330°
2026-05-06 19:27 50.87488 9.94664 37810 ft 465 kts 330°
2026-05-06 19:27 50.93268 9.90208 37807 ft 463 kts 330°
2026-05-06 19:28 50.99052 9.85741 37815 ft 462 kts 330°
2026-05-06 19:28 51.04824 9.81276 37818 ft 461 kts 330°
2026-05-06 19:29 51.10595 9.76792 37820 ft 461 kts 330°
2026-05-06 19:29 51.16378 9.72337 37826 ft 463 kts 335°
2026-05-06 19:30 51.22656 9.69926 37830 ft 469 kts 354°
2026-05-06 19:30 51.29196 9.70516 37829 ft 473 kts
2026-05-06 19:31 51.35749 9.71582 37835 ft 473 kts
2026-05-06 19:31 51.45561 9.73182 37834 ft 472 kts
2026-05-06 19:32 51.52055 9.74303 37835 ft 472 kts
2026-05-06 19:32 51.58579 9.75557 37834 ft 472 kts
2026-05-06 19:33 51.65101 9.76844 37844 ft 472 kts
2026-05-06 19:33 51.71621 9.78104 37836 ft 472 kts
2026-05-06 19:34 51.78121 9.79327 37835 ft 472 kts
2026-05-06 19:34 51.84648 9.80544 37835 ft 472 kts
2026-05-06 19:35 51.91160 9.81793 37817 ft 471 kts
2026-05-06 19:35 51.97667 9.83071 37672 ft 470 kts
2026-05-06 19:36 52.00920 9.83707 37347 ft 470 kts
2026-05-06 19:36 52.04168 9.84340 36651 ft 470 kts
2026-05-06 19:36 52.07427 9.84976 35819 ft 473 kts
2026-05-06 19:36 52.10701 9.85617 34949 ft 476 kts
2026-05-06 19:37 52.14002 9.86261 34068 ft 479 kts
2026-05-06 19:37 52.17311 9.86904 33212 ft 477 kts
2026-05-06 19:37 52.20572 9.87541 32677 ft 469 kts
2026-05-06 19:37 52.22714 9.87961 32273 ft 465 kts
2026-05-06 19:38 52.26935 9.89214 31486 ft 459 kts 13°
2026-05-06 19:38 52.30000 9.90566 30905 ft 453 kts 14°
2026-05-06 19:38 52.33037 9.91909 30324 ft 448 kts 14°
2026-05-06 19:38 52.36027 9.93232 29757 ft 443 kts 13°
2026-05-06 19:39 52.38993 9.94543 29156 ft 437 kts 14°
2026-05-06 19:39 52.41911 9.95834 28623 ft 431 kts 13°
2026-05-06 19:39 52.44785 9.97105 28080 ft 426 kts 13°
2026-05-06 19:39 52.47626 9.98362 27553 ft 421 kts 13°
2026-05-06 19:40 52.50436 9.99603 27040 ft 416 kts 13°
2026-05-06 19:40 52.53225 10.00836 26536 ft 411 kts 13°
2026-05-06 19:40 52.55934 10.02037 26053 ft 407 kts 13°
2026-05-06 19:40 52.58705 10.03187 25576 ft 403 kts
2026-05-06 19:41 52.61438 10.03618 25237 ft 396 kts
2026-05-06 19:41 52.64161 10.03970 24829 ft 392 kts
2026-05-06 19:41 52.66873 10.04327 24365 ft 389 kts
2026-05-06 19:41 52.69565 10.04681 23908 ft 386 kts
2026-05-06 19:42 52.72232 10.05028 23433 ft 384 kts
2026-05-06 19:42 52.74889 10.05369 22941 ft 381 kts
2026-05-06 19:42 52.77518 10.05708 22480 ft 377 kts
2026-05-06 19:42 52.80121 10.06044 22019 ft 374 kts
2026-05-06 19:43 52.82707 10.06377 21565 ft 371 kts
2026-05-06 19:43 52.85273 10.06709 21088 ft 369 kts
2026-05-06 19:43 52.87828 10.07040 20617 ft 367 kts
2026-05-06 19:43 52.90363 10.07366 20136 ft 365 kts
2026-05-06 19:44 52.92890 10.07692 19669 ft 364 kts
2026-05-06 19:44 52.95408 10.08019 19199 ft 363 kts
2026-05-06 19:44 52.97923 10.08345 18728 ft 362 kts
2026-05-06 19:44 53.00433 10.08672 18258 ft 361 kts
2026-05-06 19:45 53.02938 10.09001 17744 ft 361 kts
2026-05-06 19:45 53.05431 10.09330 17281 ft 358 kts
2026-05-06 19:45 53.07908 10.09657 16822 ft 356 kts
2026-05-06 19:45 53.10358 10.09977 16373 ft 354 kts
2026-05-06 19:46 53.12805 10.10296 15928 ft 352 kts
2026-05-06 19:46 53.15242 10.10613 15484 ft 350 kts
2026-05-06 19:46 53.17672 10.10930 15040 ft 349 kts
2026-05-06 19:46 53.20087 10.11248 14598 ft 347 kts
2026-05-06 19:47 53.22491 10.11564 14152 ft 346 kts
2026-05-06 19:47 53.24859 10.11877 13717 ft 345 kts
2026-05-06 19:47 53.27236 10.12194 13314 ft 341 kts
2026-05-06 19:47 53.29583 10.12508 12873 ft 338 kts
2026-05-06 19:48 53.31919 10.12820 12415 ft 335 kts
2026-05-06 19:48 53.34230 10.13127 11971 ft 331 kts
2026-05-06 19:48 53.36523 10.13343 11525 ft 328 kts 358°
2026-05-06 19:48 53.38758 10.12707 11083 ft 326 kts 342°
2026-05-06 19:49 53.40162 10.11730 10799 ft 324 kts 332°
2026-05-06 19:49 53.41972 10.09583 10390 ft 322 kts 317°
2026-05-06 19:49 53.43494 10.06847 9975 ft 320 kts 313°
2026-05-06 19:49 53.44976 10.04089 9564 ft 317 kts 313°
2026-05-06 19:50 53.46441 10.01357 9108 ft 314 kts 314°
2026-05-06 19:50 53.47881 9.98626 8654 ft 308 kts 309°
2026-05-06 19:50 53.48748 9.95459 8219 ft 297 kts 280°
2026-05-06 19:50 53.48582 9.92106 7782 ft 285 kts 249°
2026-05-06 19:51 53.47558 9.89356 7340 ft 274 kts 230°
2026-05-06 19:51 53.46362 9.86950 6915 ft 264 kts 230°
2026-05-06 19:51 53.45200 9.84632 6499 ft 256 kts 230°
2026-05-06 19:51 53.44056 9.82360 6082 ft 257 kts 230°
2026-05-06 19:52 53.42893 9.80048 5617 ft 259 kts 230°
2026-05-06 19:52 53.41742 9.77754 5355 ft 254 kts 230°
2026-05-06 19:52 53.40618 9.75510 5127 ft 248 kts 230°
2026-05-06 19:52 53.39515 9.73303 4976 ft 247 kts 231°
2026-05-06 19:53 53.38747 9.70763 4941 ft 245 kts 260°
2026-05-06 19:53 53.38819 9.67975 4601 ft 239 kts 292°
2026-05-06 19:53 53.39728 9.65791 4418 ft 223 kts 327°
2026-05-06 19:53 53.41093 9.64904 4256 ft 205 kts
2026-05-06 19:54 53.42462 9.65329 3988 ft 199 kts 21°
2026-05-06 19:54 53.43737 9.66127 3835 ft 192 kts 24°
2026-05-06 19:54 53.44938 9.66923 3751 ft 180 kts 24°
2026-05-06 19:54 53.46090 9.67685 3478 ft 177 kts 24°
2026-05-06 19:55 53.47231 9.68447 3173 ft 176 kts 24°
2026-05-06 19:55 53.48312 9.69352 3014 ft 172 kts 41°
2026-05-06 19:55 53.49116 9.70836 3011 ft 173 kts 51°
2026-05-06 19:55 53.49894 9.72390 3009 ft 174 kts 51°
2026-05-06 19:56 53.50668 9.73936 3006 ft 171 kts 51°
2026-05-06 19:56 53.51399 9.75398 3001 ft 158 kts 51°
2026-05-06 19:56 53.52097 9.76797 2998 ft 155 kts 51°
2026-05-06 19:56 53.52785 9.78177 2883 ft 153 kts 51°
2026-05-06 19:57 53.53470 9.79550 2711 ft 153 kts 51°
2026-05-06 19:57 53.54144 9.80903 2518 ft 152 kts 52°
2026-05-06 19:57 53.54818 9.82256 2312 ft 145 kts 52°
2026-05-06 19:57 53.55444 9.83513 2116 ft 136 kts 52°
2026-05-06 19:58 53.56041 9.84714 1960 ft 131 kts 51°
2026-05-06 19:58 53.56626 9.85890 1776 ft 131 kts 51°
2026-05-06 19:58 53.57198 9.87041 1590 ft 129 kts 52°
2026-05-06 19:58 53.57769 9.88209 1403 ft 129 kts 53°
2026-05-06 19:59 53.58339 9.89382 1211 ft 130 kts 50°
2026-05-06 19:59 53.58933 9.90514 1079 ft 128 kts 50°
2026-05-06 19:59 53.59494 9.91688 876 ft 129 kts 51°
2026-05-06 19:59 53.60071 9.92845 664 ft 130 kts 48°
2026-05-06 20:00 53.60650 9.94001 509 ft 129 kts 50°
2026-05-06 20:00 53.61231 9.95169 321 ft 131 kts 50°
2026-05-06 20:00 53.61820 9.96357 132 ft 132 kts 50°
2026-05-06 20:00 53.62392 9.97519 43 ft 117 kts 50°
2026-05-06 20:01 53.62803 9.98350 44 ft 73 kts 50°
2026-05-06 20:01 53.63093 9.98933 45 ft 42 kts 50°
2026-05-06 20:01 53.63258 9.99268 48 ft 33 kts 53°
2026-05-06 20:01 53.63285 9.99586 44 ft 18 kts 100°
2026-05-06 20:02 53.63273 9.99691 45 ft 7 kts 100°
2026-05-06 20:02 53.63273 9.99695 45 ft 0 kts 100°
2026-05-06 20:03 53.63279 9.99763 45 ft 12 kts 59°
2026-05-06 20:03 53.63339 9.99885 45 ft 14 kts 50°
2026-05-06 20:03 53.63403 10.00016 46 ft 13 kts 50°
2026-05-06 20:04 53.63429 10.00138 46 ft 11 kts 124°
2026-05-06 20:04 53.63356 10.00164 46 ft 10 kts 173°
2026-05-06 20:04 53.63289 10.00177 46 ft 9 kts 173°
2026-05-06 20:04 53.63229 10.00185 46 ft 8 kts 187°
2026-05-06 20:05 53.63175 10.00182 45 ft 6 kts 178°
2026-05-06 20:05 53.63134 10.00185 45 ft 5 kts 176°
2026-05-06 20:05 53.63103 10.00200 44 ft 4 kts 137°
2026-05-06 20:05 53.63100 10.00238 46 ft 4 kts 90°
2026-05-06 20:06 53.63101 10.00279 46 ft 3 kts 88°
2026-05-06 20:06 53.63111 10.00353 46 ft 6 kts 63°
2026-05-06 20:06 53.63114 10.00378 46 ft 0 kts 84°